Total_Precipitation_Accumulation
2.19 2.52 2.56 2.49 2.49 2.55 2.37 2.31 2.45 2.49 2.50 2.64 2.66 2.65 2.62 2.77 3.00 3.22 3.09 3.23 3.36 3.39 3.34 3.28 3.18 3.24 3.46 3.37 3.52 3.66 3.92 4.22 3.86 3.33 3.17 3.19 3.34 3.25 3.08 2.72 2.45 2.33 2.13
2.46 2.85 2.95 2.73 2.51 2.35 2.15 2.14 2.32 2.51 2.55 2.56 2.57 2.55 2.47 2.60 2.90 3.03 3.12 3.42 3.56 3.41 3.31 3.32 3.14 3.29 3.39 3.36 3.46 3.43 3.53 3.90 3.77 3.45 3.34 3.42 3.38 3.25 3.20 2.99 2.57 2.30 2.32
2.35 2.74 2.70 2.43 2.20 2.15 2.12 2.14 2.31 2.52 2.53 2.50 2.53 2.55 2.64 2.83 3.03 3.12 3.21 3.37 3.35 3.25 3.34 3.28 3.11 3.26 3.12 3.18 3.22 3.20 3.20 3.33 3.57 3.41 3.22 3.35 3.27 3.15 3.19 3.05 2.95 3.05 2.71
1.88 2.29 2.24 2.04 1.95 1.98 2.02 2.09 2.16 2.30 2.35 2.40 2.56 2.72 2.84 3.01 3.11 3.17 3.23 3.21 3.16 3.00 2.92 2.86 2.88 3.04 3.13 3.18 3.07 3.03 3.12 3.27 3.40 3.39 3.27 3.35 3.37 3.41 3.38 3.27 3.30 3.23 2.99
1.73 2.07 2.05 1.93 1.94 1.91 1.91 2.05 2.18 2.27 2.29 2.54 2.69 2.75 2.78 2.78 2.82 3.03 3.02 2.92 2.91 2.75 2.62 2.45 2.48 2.83 3.00 3.01 2.76 2.90 3.03 3.08 3.16 3.29 3.30 3.37 3.46 3.73 3.52 3.27 3.20 3.32 3.16
1.66 1.99 2.01 1.91 1.84 1.77 1.86 2.03 2.19 2.29 2.49 2.71 2.69 2.67 2.59 2.17 2.29 2.48 2.51 2.53 2.58 2.55 2.41 2.35 2.32 2.38 2.41 2.46 2.48 2.54 2.65 2.74 2.98 3.32 3.38 3.33 3.30 3.43 3.58 3.53 3.48 3.43 3.30
1.74 2.02 2.12 2.04 1.98 1.95 1.89 2.07 2.29 2.53 2.75 2.85 2.78 2.69 2.51 2.41 2.30 2.14 2.11 2.16 2.32 2.35 2.37 2.44 2.11 1.90 2.12 2.13 2.31 2.32 2.24 2.35 2.52 2.83 3.01 3.00 3.15 3.22 3.58 3.59 3.65 3.65 3.58
1.78 2.06 2.22 2.18 2.17 2.26 2.27 2.35 2.57 2.81 2.98 3.00 2.95 2.83 2.70 2.56 2.46 2.19 2.14 2.06 2.18 2.22 2.24 2.28 2.22 2.12 2.10 2.24 2.37 2.32 2.11 2.07 2.09 2.04 2.24 2.56 2.88 3.25 3.41 3.50 3.67 3.74 3.72
1.71 2.02 2.26 2.35 2.42 2.42 2.45 2.70 2.91 3.04 3.06 3.01 3.06 2.96 2.81 2.76 2.57 2.17 1.99 1.90 2.08 2.12 2.14 2.10 2.06 2.01 2.16 2.10 2.02 2.01 2.01 2.00 1.89 1.88 1.92 2.15 2.42 2.56 2.83 3.14 3.39 3.42 3.28
2.05 2.22 2.52 2.76 2.92 2.95 3.01 3.08 3.11 3.20 3.16 3.16 3.07 2.99 2.87 2.83 2.76 2.18 1.90 1.81 2.00 2.05 2.12 2.09 1.99 1.85 1.92 1.86 1.75 1.87 1.87 1.89 2.02 1.99 1.85 1.81 1.88 2.10 2.27 2.34 2.74 3.01 2.86
2.51 2.58 2.86 3.23 3.42 3.37 3.42 3.29 3.18 3.16 3.16 3.16 3.04 2.93 2.86 2.76 2.69 2.21 2.02 1.98 2.11 2.20 2.14 2.06 2.01 1.93 1.73 1.71 1.68 1.69 1.77 1.86 1.99 2.06 1.99 1.87 1.96 2.11 2.06 2.04 2.31 2.66 2.76
2.84 3.13 3.36 3.54 3.36 3.26 3.47 3.36 3.35 3.40 3.35 3.22 3.15 3.04 3.06 2.96 2.71 2.38 2.16 2.15 2.24 2.28 2.29 2.24 2.18 1.99 1.74 1.70 1.62 1.58 1.64 1.57 1.55 1.74 1.81 1.75 1.79 1.87 1.94 1.97 2.11 2.28 2.46
3.03 3.24 3.30 3.34 3.44 3.59 3.66 3.53 3.48 3.46 3.37 3.18 3.12 2.95 2.89 2.99 2.98 2.58 2.27 2.27 2.31 2.20 2.30 2.41 2.20 1.96 1.77 1.59 1.60 1.65 1.57 1.42 1.47 1.53 1.55 1.59 1.62 1.75 2.00 2.20 2.34 2.48 2.50
2.87 2.91 3.02 3.19 3.31 3.45 3.69 3.69 3.55 3.37 3.25 3.15 3.13 2.99 2.90 2.94 2.86 2.49 2.17 2.15 2.22 2.14 2.15 2.25 2.13 1.95 1.79 1.64 1.62 1.63 1.54 1.56 1.68 1.65 1.65 1.74 1.83 1.93 2.07 2.18 2.36 2.55 2.58
2.98 2.89 2.81 2.84 2.95 3.11 3.24 3.33 3.28 3.25 3.13 2.99 2.79 2.71 2.67 2.66 2.66 2.43 2.17 2.11 2.23 2.32 2.29 2.24 2.18 2.06 1.92 1.81 1.80 1.82 1.86 1.89 1.86 1.87 1.92 1.93 1.95 2.01 2.10 2.23 2.39 2.51 2.50
2.91 2.79 2.72 2.67 2.74 2.80 2.83 2.81 2.70 2.60 2.47 2.31 2.21 2.12 2.06 2.14 2.33 2.18 2.02 2.06 2.28 2.44 2.30 2.16 2.26 2.22 2.09 2.01 2.00 2.00 2.02 1.97 1.97 2.07 2.08 2.07 2.07 2.09 2.15 2.22 2.30 2.34 2.36
2.83 2.64 2.47 2.35 2.37 2.37 2.42 2.59 2.67 2.45 2.26 2.04 1.91 1.78 1.73 1.84 1.94 1.97 1.94 1.98 2.11 2.13 1.93 1.94 2.09 2.14 2.06 2.03 2.02 2.00 1.92 1.99 2.12 2.09 2.05 2.11 2.14 2.14 2.21 2.30 2.36 2.44 2.41
2.62 2.60 2.47 2.34 2.31 2.31 2.40 2.50 2.63 2.62 2.33 1.94 1.85 1.78 1.60 1.55 1.59 1.67 1.77 1.79 1.77 1.77 1.69 1.78 1.87 1.96 1.99 2.01 2.03 2.06 2.00 2.01 2.06 2.07 2.07 2.13 2.21 2.22 2.25 2.26 2.25 2.34 2.46
2.38 2.33 2.30 2.36 2.33 2.32 2.44 2.48 2.47 2.51 2.39 2.17 1.91 1.73 1.63 1.49 1.53 1.65 1.61 1.50 1.57 1.61 1.59 1.65 1.72 1.76 1.81 1.87 1.88 1.97 2.00 1.99 1.98 2.02 2.00 2.04 2.11 2.16 2.22 2.22 2.21 2.31 2.38
2.36 2.27 2.15 2.13 2.10 2.08 2.15 2.27 2.32 2.43 2.41 2.32 2.13 1.84 1.63 1.53 1.54 1.62 1.56 1.61 1.74 1.72 1.63 1.66 1.65 1.67 1.74 1.83 1.91 1.97 1.98 2.02 2.07 2.08 2.07 2.11 2.13 2.18 2.20 2.24 2.29 2.34 2.35
2.27 2.11 1.87 1.70 1.73 1.86 2.02 2.15 2.19 2.25 2.36 2.31 2.09 1.86 1.64 1.44 1.53 1.66 1.72 1.73 1.71 1.68 1.62 1.61 1.58 1.58 1.62 1.73 1.82 1.89 1.97 2.04 2.06 2.09 2.17 2.18 2.13 2.12 2.11 2.19 2.24 2.30 2.36
2.11 1.96 1.74 1.59 1.63 1.74 1.89 2.10 2.17 2.11 2.09 2.08 1.98 1.79 1.68 1.46 1.51 1.60 1.64 1.66 1.63 1.64 1.62 1.60 1.54 1.54 1.56 1.66 1.82 1.88 1.92 1.95 1.99 2.05 2.06 2.08 2.12 2.11 2.12 2.20 2.25 2.27 2.31
2.00 1.92 1.79 1.70 1.75 1.82 1.87 1.94 1.95 1.91 1.87 1.82 1.77 1.67 1.59 1.57 1.60 1.68 1.67 1.61 1.60 1.56 1.56 1.56 1.52 1.52 1.57 1.67 1.77 1.84 1.87 1.83 1.82 1.88 1.99 2.08 2.11 2.12 2.18 2.23 2.18 2.18 2.19
1.76 1.80 1.75 1.69 1.71 1.76 1.74 1.77 1.72 1.72 1.70 1.66 1.63 1.63 1.62 1.65 1.67 1.64 1.64 1.61 1.57 1.47 1.40 1.42 1.45 1.49 1.50 1.50 1.47 1.50 1.52 1.57 1.57 1.61 1.73 1.88 1.98 2.08 2.17 2.19 2.14 2.11 2.24
1.65 1.72 1.73 1.75 1.76 1.77 1.77 1.79 1.73 1.69 1.68 1.71 1.72 1.69 1.65 1.63 1.61 1.62 1.63 1.57 1.51 1.48 1.45 1.46 1.49 1.43 1.34 1.34 1.32 1.31 1.46 1.49 1.44 1.49 1.62 1.82 1.91 2.02 2.18 2.23 2.20 2.21 2.35
1.52 1.56 1.60 1.63 1.66 1.69 1.70 1.74 1.75 1.69 1.64 1.59 1.58 1.56 1.49 1.46 1.48 1.45 1.41 1.38 1.41 1.44 1.42 1.40 1.41 1.40 1.35 1.32 1.33 1.43 1.48 1.43 1.45 1.58 1.55 1.57 1.73 1.85 1.96 2.05 1.99 2.07 2.21